[[{"header":{"parameterUnit":"m.s-1","parameterCategory":1,"la1":30.2991,"la2":30.254,"lo1":-89.0895,"lo2":-89.0444,"dy":0.0017,"dx":0.0017,"nx":28,"ny":28,"refTime":"2023-07-25T09:00:00:Z","depth":0,"parameterNumber":2,"parameterNumberName":"U-component_of_WINDS"},"data":[0,0,0,0,0,0,0,0,0,0,0,0,0,0,0,0,0,0,0,0,0,0,0,0,0,0,0,0,0,0,0,0,0,0,0,0,0,0,0,0,0,0,0,0,0,0,0,0,0,0,0,0,0,0,0,0,0,0,1.1003,1.1004,0,1.1157,1.1159,1.116,1.1213,1.1213,1.1212,1.1212,1.1372,1.1377,1.1382,0,0,0,0,0,0,0,0,0,0,0,0,0,1.0756,1.076,1.1003,1.1005,1.1007,1.1157,1.1159,1.1161,1.1214,1.1213,1.1212,1.1211,1.1371,1.1377,1.1382,0,0,0,0,0,0,0,0,0,0,0,0,0,1.0882,1.0762,1.1002,1.1051,1.1057,1.1156,1.1159,1.1161,1.1214,1.1213,1.1212,1.1211,1.1369,1.1376,1.1383,1.1446,0,0,1.1405,1.1409,0,0,0,0,0,0,0,0,1.0875,1.0891,1.1042,1.1048,1.1054,1.1165,1.1131,1.1257,1.1214,1.1154,1.1212,1.1211,1.1304,1.1317,1.1348,1.1454,1.1461,1.1406,1.1411,1.1414,1.1416,0,0,0,0,0,0,0,1.0866,1.0885,1.1064,1.1044,1.1052,1.1066,1.1083,1.1155,1.1233,1.1159,1.1164,1.1181,1.1308,1.1341,1.1352,1.1463,1.1406,1.1412,1.1417,1.142,1.1628,1.1629,0,0,0,0,0,0,1.0849,1.0877,1.1059,1.1068,1.0961,1.1071,1.109,1.113,1.1232,1.1247,1.1182,1.1183,1.1329,1.1344,1.1358,1.1438,1.1414,1.142,1.1425,1.1627,1.1629,1.163,0,0,0,0,0,0,1.0843,1.0865,1.1053,1.0974,1.0999,1.1076,1.1121,1.1134,1.1167,1.1249,1.1263,1.1201,1.1329,1.1348,1.1424,1.1444,1.1424,1.143,1.1626,1.1628,1.1629,1.1599,0,0,0,0,0,0,1.0836,1.0862,1.0887,1.0974,1.1003,1.1115,1.1123,1.1138,1.1179,1.1182,1.1271,1.1285,1.1329,1.1412,1.1431,1.1454,1.1436,1.1624,1.1627,1.1629,1.1598,1.1599,1.16,0,0,0,0,0,1.0827,1.0873,1.0888,1.0909,1.1035,1.1116,1.1133,1.1182,1.1181,1.1206,1.1258,1.1282,1.1439,1.142,1.1441,1.1466,1.1623,1.1626,1.1629,1.1598,1.1599,1.16,0,0,0,0,0,0,1.0787,1.0885,1.0903,1.0978,1.1038,1.1125,1.1158,1.1182,1.1245,1.1246,1.1306,1.1325,1.1396,1.144,1.1416,1.1533,1.1533,1.154,1.1502,1.1504,1.1504,1.1492,1.1442,0,0,0,0,0,1.0786,1.0843,1.0927,1.0985,1.1014,1.1081,1.1118,1.1151,1.1216,1.1242,1.13,1.1364,1.1427,1.1468,1.1531,1.1605,1.1625,1.1633,1.1634,1.1634,1.1639,1.1681,1.1685,1.1639,1.1639,1.1639,0,0,1.0786,1.0847,1.088,1.0978,1.1029,1.1087,1.1102,1.1163,1.1207,1.1252,1.1327,1.1371,1.1446,1.1521,1.1557,1.1559,1.1656,1.1637,1.1637,1.1642,1.1684,1.1688,1.1692,1.164,1.164,1.164,0,0,1.0816,1.0868,1.0921,1.0972,1.1048,1.1092,1.1104,1.1188,1.1219,1.1294,1.1329,1.1383,1.1492,1.1543,1.1583,1.1631,1.1655,1.1651,1.1655,1.1695,1.1698,1.1702,1.1719,1.1724,1.1656,1.1656,1.1656,0,1.0806,1.0895,1.0946,1.1005,1.1047,1.109,1.1145,1.1191,1.1284,1.1313,1.1314,1.145,1.1504,1.159,1.1602,1.1633,1.165,1.1641,1.1694,1.1698,1.1702,1.1718,1.1724,1.1654,1.1655,1.1655,1.1655,0,1.0879,1.094,1.0974,1.1061,1.1108,1.1164,1.1225,1.1266,1.1295,1.1339,1.1415,1.148,1.1557,1.158,1.161,1.1672,1.167,1.1682,1.1683,1.1704,1.1721,1.1727,1.1653,1.1653,1.1654,1.1654,0,0,1.0887,1.1002,1.1013,1.1053,1.114,1.1188,1.1247,1.1321,1.1354,1.1417,1.1468,1.1558,1.1569,1.1615,1.1651,1.1686,1.1719,1.1693,1.1696,1.1695,1.179,1.178,1.1786,1.1735,1.1737,1.1738,1.1783,0,1.0927,1.1033,1.1081,1.1165,1.1221,1.1263,1.1314,1.1373,1.1415,1.147,1.1518,1.1581,1.1591,1.1618,1.1655,1.1707,1.1738,1.1704,1.1783,1.1785,1.1762,1.1795,1.1786,1.1825,1.179,1.1791,1.1792,0,1.0988,1.105,1.1139,1.1218,1.1244,1.1289,1.136,1.1412,1.148,1.1509,1.1559,1.1593,1.1657,1.1653,1.1742,1.1717,1.1753,1.1783,1.1786,1.1795,1.1789,1.1804,1.1839,1.1845,1.1803,1.1802,1.1801,0,1.0984,1.1089,1.1156,1.1189,1.1284,1.1314,1.1355,1.1422,1.1463,1.1526,1.1553,1.1623,1.1661,1.1715,1.1767,1.176,1.185,1.1851,1.1876,1.1874,1.1893,1.1891,1.1933,1.1916,1.1916,1.1916,1.1916,0,1.1023,1.1076,1.1155,1.1196,1.1257,1.1312,1.1371,1.1415,1.1474,1.1525,1.1565,1.1612,1.1679,1.1734,1.1776,1.1842,1.1859,1.1884,1.1895,1.1881,1.1877,1.1904,1.1902,1.1918,1.1917,1.1917,1.1917,0,1.1028,1.1084,1.1159,1.1242,1.1264,1.1305,1.1377,1.1418,1.1463,1.1527,1.1545,1.1615,1.1682,1.174,1.1829,1.1857,1.1925,1.1938,1.1902,1.1907,1.1928,1.1925,1.1989,1.2,1.1975,1.1976,1.1976,0,1.1049,1.1091,1.1178,1.1214,1.1254,1.1313,1.1355,1.1411,1.1453,1.1533,1.1565,1.1635,1.1694,1.1799,1.1859,1.1927,1.1941,1.1959,1.1952,1.1936,1.1941,1.1937,1.1942,1.1959,1.1959,1.1959,1.1959,0,1.1081,1.1106,1.1164,1.1232,1.1281,1.1337,1.1395,1.1422,1.1489,1.1534,1.1603,1.1648,1.1739,1.1808,1.1882,1.1925,1.1953,1.1961,1.197,1.1955,1.1932,1.1944,1.1902,1.1959,1.1959,1.1959,1.1959,1.1959,1.1094,1.1133,1.12,1.1263,1.1312,1.1365,1.1408,1.1457,1.1515,1.1592,1.1622,1.1692,1.1759,1.1862,1.1905,1.1961,1.1965,1.1979,1.1982,1.1984,1.1981,1.1923,1.1975,1.1975,1.1975,1.1975,1.1975,0,1.1127,1.1172,1.123,1.1308,1.1358,1.138,1.1444,1.1485,1.1545,1.1605,1.1662,1.1741,1.1808,1.1872,1.1942,1.1975,1.1989,1.1991,1.1989,1.1999,1.1974,1.1959,1.1978,1.1978,1.1978,1.1978,1.1978,1.1978,1.115,1.1216,1.1248,1.1339,1.1384,1.1452,1.1487,1.1536,1.1584,1.167,1.1725,1.1766,1.1828,1.1903,1.1966,1.1983,1.2007,1.2005,1.2026,1.2002,1.2,1.1999,1.1985,1.201,1.201,1.2046,1.2046,1.2046]},{"header":{"parameterUnit":"m.s-1","parameterCategory":1,"la1":30.2991,"la2":30.254,"lo1":-89.0895,"lo2":-89.0444,"dy":0.0017,"dx":0.0017,"nx":28,"ny":28,"refTime":"2023-07-25T09:00:00:Z","depth":0,"parameterNumber":3,"parameterNumberName":"V-component_of_WINDS"},"data":[0,0,0,0,0,0,0,0,0,0,0,0,0,0,0,0,0,0,0,0,0,0,0,0,0,0,0,0,0,0,0,0,0,0,0,0,0,0,0,0,0,0,0,0,0,0,0,0,0,0,0,0,0,0,0,0,0,0,3.4511,3.4511,0,3.4444,3.4443,3.4442,3.4415,3.4415,3.4416,3.4416,3.4339,3.4337,3.4334,0,0,0,0,0,0,0,0,0,0,0,0,0,3.461,3.4608,3.4512,3.4511,3.451,3.4444,3.4443,3.4442,3.4415,3.4416,3.4416,3.4416,3.4339,3.4337,3.4334,0,0,0,0,0,0,0,0,0,0,0,0,0,3.4557,3.4608,3.4512,3.4489,3.4486,3.4444,3.4443,3.4442,3.4415,3.4416,3.4416,3.4416,3.434,3.4337,3.4334,3.4308,0,0,3.4324,3.4322,0,0,0,0,0,0,0,0,3.456,3.4554,3.4493,3.449,3.4487,3.4439,3.445,3.4397,3.4415,3.4442,3.4416,3.4416,3.4371,3.4365,3.4352,3.4304,3.4301,3.4323,3.4321,3.432,3.4319,0,0,0,0,0,0,0,3.4564,3.4556,3.4485,3.4492,3.4488,3.4479,3.4472,3.4439,3.4405,3.444,3.4437,3.443,3.437,3.4355,3.435,3.43,3.4323,3.432,3.4318,3.4317,3.4227,3.4226,0,0,0,0,0,0,3.4572,3.456,3.4487,3.4483,3.4525,3.4477,3.4469,3.4454,3.4406,3.4399,3.443,3.4429,3.4361,3.4354,3.4347,3.4313,3.432,3.4317,3.4315,3.4227,3.4226,3.4226,0,0,0,0,0,0,3.4575,3.4566,3.4489,3.4521,3.451,3.4476,3.4458,3.4452,3.4438,3.4399,3.4392,3.4422,3.4361,3.4352,3.4318,3.431,3.4315,3.4312,3.4227,3.4227,3.4226,3.4245,0,0,0,0,0,0,3.4578,3.4567,3.4559,3.4521,3.4509,3.4464,3.4458,3.4451,3.4433,3.4431,3.4389,3.4383,3.436,3.4323,3.4315,3.4306,3.431,3.4228,3.4227,3.4226,3.4245,3.4246,3.4246,0,0,0,0,0,3.4581,3.4565,3.4558,3.455,3.4497,3.4464,3.4456,3.4433,3.4433,3.4422,3.4397,3.4384,3.4313,3.432,3.431,3.43,3.4228,3.4227,3.4226,3.4245,3.4245,3.4246,0,0,0,0,0,0,3.4599,3.4559,3.4552,3.4523,3.4497,3.4459,3.4446,3.4434,3.4406,3.4405,3.4375,3.4366,3.4335,3.4314,3.4323,3.4272,3.4269,3.4266,3.4287,3.4287,3.4287,3.4292,3.4307,0,0,0,0,0,3.4601,3.4579,3.4544,3.4522,3.451,3.448,3.4465,3.4449,3.442,3.4408,3.4381,3.4351,3.4322,3.4303,3.4274,3.4242,3.4232,3.423,3.4231,3.4231,3.4228,3.421,3.4208,3.4223,3.4223,3.4223,0,0,3.4602,3.4577,3.4565,3.4525,3.4504,3.448,3.4471,3.4446,3.4427,3.4404,3.4371,3.435,3.4315,3.4282,3.4266,3.4264,3.4222,3.423,3.423,3.4227,3.4208,3.4207,3.4206,3.4222,3.4223,3.4223,0,0,3.4592,3.4572,3.4552,3.4531,3.4499,3.448,3.4475,3.4439,3.4425,3.4392,3.4374,3.435,3.4301,3.4277,3.4258,3.424,3.4226,3.4231,3.4232,3.4214,3.4213,3.4212,3.4205,3.4203,3.4229,3.4229,3.4229,0,3.4597,3.4563,3.4542,3.4519,3.4501,3.4482,3.446,3.4439,3.4399,3.4386,3.4385,3.4323,3.4298,3.4259,3.4255,3.4241,3.4233,3.4236,3.4215,3.4214,3.4212,3.4205,3.4203,3.423,3.423,3.423,3.423,0,3.457,3.4546,3.4533,3.4498,3.4479,3.4456,3.443,3.4413,3.4399,3.4379,3.4346,3.4316,3.428,3.427,3.4255,3.4229,3.4229,3.4222,3.4218,3.4212,3.4205,3.4202,3.4231,3.4231,3.4231,3.4231,0,0,3.4568,3.4524,3.4519,3.4503,3.4467,3.4447,3.4423,3.4391,3.4377,3.4349,3.4327,3.4287,3.4281,3.4259,3.4242,3.4226,3.4214,3.4221,3.422,3.422,3.4182,3.4187,3.4185,3.4205,3.4204,3.4204,3.4185,0,3.4553,3.4513,3.4493,3.446,3.4437,3.4419,3.4398,3.4372,3.4353,3.4329,3.4307,3.4279,3.4273,3.426,3.4244,3.4219,3.4205,3.422,3.4182,3.4181,3.4191,3.4181,3.4186,3.4169,3.4182,3.4181,3.4181,0,3.453,3.4506,3.4471,3.4439,3.4429,3.441,3.438,3.4358,3.4328,3.4315,3.4293,3.4276,3.4248,3.4248,3.4208,3.4218,3.4201,3.4186,3.4185,3.418,3.418,3.4174,3.4164,3.4161,3.4177,3.4177,3.4177,0,3.4532,3.4491,3.4465,3.4451,3.4413,3.4401,3.4383,3.4354,3.4337,3.4309,3.4297,3.4266,3.4248,3.4223,3.4198,3.42,3.416,3.4158,3.4147,3.4147,3.4138,3.4139,3.4124,3.4129,3.4129,3.4129,3.4129,0,3.4517,3.4496,3.4465,3.4449,3.4425,3.4402,3.4378,3.4359,3.4334,3.4312,3.4293,3.4273,3.4241,3.4216,3.4196,3.4165,3.4157,3.4144,3.4139,3.4146,3.4147,3.4133,3.4134,3.4128,3.4129,3.4129,3.4129,0,3.4514,3.4493,3.4464,3.4431,3.4422,3.4405,3.4376,3.4358,3.4339,3.4312,3.4304,3.4273,3.4242,3.4216,3.4174,3.416,3.4129,3.4123,3.414,3.4137,3.4127,3.4128,3.4102,3.4097,3.4107,3.4107,3.4107,0,3.4505,3.449,3.4456,3.4442,3.4426,3.4402,3.4385,3.4362,3.4344,3.431,3.4296,3.4265,3.4239,3.4191,3.4163,3.4131,3.4123,3.4116,3.4118,3.4125,3.4122,3.4123,3.4121,3.4116,3.4116,3.4116,3.4116,0,3.4492,3.4483,3.446,3.4434,3.4415,3.4392,3.4369,3.4357,3.4329,3.431,3.428,3.4261,3.422,3.4189,3.4154,3.4134,3.4119,3.4116,3.4112,3.4118,3.4128,3.4122,3.4139,3.4116,3.4116,3.4116,3.4116,3.4116,3.4485,3.4471,3.4445,3.442,3.4401,3.438,3.4363,3.4342,3.4318,3.4285,3.4272,3.4242,3.4212,3.4165,3.4145,3.4119,3.4116,3.411,3.4108,3.4107,3.4108,3.4134,3.4112,3.4112,3.4112,3.4112,3.4112,0,3.4471,3.4454,3.4432,3.4401,3.4381,3.4373,3.4347,3.433,3.4305,3.428,3.4255,3.4221,3.4191,3.4161,3.4129,3.4114,3.4106,3.4106,3.4106,3.4102,3.4112,3.4119,3.4113,3.4113,3.4113,3.4113,3.4113,3.4113,3.4461,3.4435,3.4423,3.4387,3.437,3.4342,3.4328,3.4308,3.4288,3.4251,3.4227,3.4209,3.4182,3.4148,3.4119,3.4111,3.4099,3.4101,3.409,3.4101,3.4101,3.4101,3.4107,3.4099,3.4098,3.4082,3.4082,3.4082]}]]